Skip Page Navigation
NASA JPL Caltech
NASA Logo - Jet Propulsion Laboratory + View the NASA Portal
+ Near-Earth Object (NEO) Program
Search JPL
JPL Home Earth Solar System Stars & Galaxies Technology
JPL Solar System Dynamics
BODIES ORBITS EPHEMERIDES TOOLS PHYSICAL DATA DISCOVERY FAQ SITE MAP
JPL Small-Body Database Browser
Search: [ help ]  
(2009 CB3)
Classification: Apollo [NEO, PHA]          SPK-ID: 3445667
Ephemeris | Orbit Diagram | Orbital Elements | Physical Parameters | Close-Approach Data ]

[ hide orbit diagram ]
Orbit Diagram
Note: Make sure you have Java enabled on your browser to see the applet. This applet is provided as a 3D orbit visualization tool. The applet was implemented using 2-body methods, and hence should not be used for determining accurate long-term trajectories (over several years or decades) or planetary encounter circumstances. For accurate long-term ephemerides, please instead use our Horizons system.
Orbit Viewer

Additional Notes: the orbits shown in the applet are color coded. The planets are white lines, and the asteroid/comet is a blue line. The bright white line indicates the portion of the orbit that is above the ecliptic plane, and the darker portion is below the ecliptic plane. Likewise for the asteroid/comet orbit, the light blue indicates the portion above the ecliptic plane, and the dark blue the portion below the ecliptic plane.

Orbit Viewer applet originally written and kindly provided by Osamu Ajiki (AstroArts), and further modified by Ron Baalke (JPL).


Orbital Elements at Epoch 2456400.5 (2013-Apr-18.0) TDB
Reference: JPL 22 (heliocentric ecliptic J2000)
 Element Value Uncertainty (1-sigma)   Units 
e .7235696881925624 5.8446e-07  
a 1.06467382132574 4.8833e-08 AU
q .2943081164022905 6.1934e-07 AU
i 21.52216118922179 4.5998e-05 deg
node 158.8147142281307 3.2226e-05 deg
peri 229.4291583295126 5.9385e-05 deg
M 340.3648941480801 9.1664e-05 deg
tp 2456422.385377207360
(2013-May-09.88537721)
0.00010361 JED
period 401.2576175584665
1.10
2.7607e-05
7.558e-08
d
yr
n .8971792291209153 6.1726e-08 deg/d
Q 1.83503952624919 8.4167e-08 AU
  Orbit Determination Parameters
   # obs. used (total)      113  
   data-arc span      419 days (1.15 yr)  
   first obs. used      2009-02-04  
   last obs. used      2010-03-30  
   planetary ephem.      DE405  
   SB-pert. ephem.      SB405-CPV-2  
   condition code      1  
   fit RMS      .60883  
   data source      ORB  
   producer      Otto Matic  
   solution date      2011-Sep-14 20:39:26  

Additional Information
 Earth MOID = .0111313 AU 
 T_jup = 5.468 
[ show covariance matrix ]

Ephemeris | Orbit Diagram | Orbital Elements | Physical Parameters | Close-Approach Data ]

Physical Parameter Table
Parameter Symbol Value Units Sigma Reference Notes
absolute magnitude H 19.531 mag .59792 22 autocmod 2.5a

[ show close-approach data ]
Ephemeris | Orbit Diagram | Orbital Elements | Physical Parameters | Close-Approach Data ]
ABOUT SSD CREDITS/AWARDS PRIVACY/COPYRIGHT GLOSSARY LINKS
FirstGov 2013-May-22 15:50 UT
(server date/time)  
NASA Home Page
Site Manager:   Donald K. Yeomans
Webmaster  Alan B. Chamberlin